Location: Heilwood
(40.6210°N, 78.9150°W)
Time: 19:48:09
(UTC-04:00)

Daily predictions for brighter satellites

Satellite Brightness Start Highest point End
(mag) Time Altitude Azimuth Time Altitude Azimuth Time Altitude Azimuth
Cosmos 968 Rocket 3.8 20:17:49 10° NNW 20:22:58 74° WSW 20:28:02 10° S
Meteor 2-4 Rocket 3.9 20:17:13 10° N 20:23:05 72° E 20:28:59 10° SSE
NOSS 2-1 (D) 3.3 20:19:46 10° SSW 20:23:36 85° ESE 20:27:56 10° NE
Cosmos 1697 Rocket 4.3 20:21:31 10° ESE 20:24:01 13° E 20:26:30 10° ENE
Helios 1A 3.4 20:20:14 10° S 20:24:21 69° WSW 20:28:33 10° NNW
NOSS 2-1 (C) 3.3 20:20:47 10° SSW 20:24:37 84° ESE 20:28:58 10° NE
Cosmos 2123 Rocket 4.4 20:19:34 10° N 20:25:26 43° ENE 20:31:15 10° SSE
Cosmos 2278 4.1 20:20:30 10° S 20:25:45 40° ESE 20:31:00 10° NE
Lacrosse 5 rocket 2.6 20:27:12 10° NNW 20:30:19 24° NNE 20:33:20 10° E
Cosmos 1315 Rocket 3.5 20:27:56 10° SSW 20:31:53 60° WNW 20:35:54 10° N
ERS-1 Rocket 4.2 20:28:34 10° ESE 20:32:30 24° ENE 20:36:27 10° NNE
Meteor 2-14 Rocket 4.5 20:26:38 10° S 20:32:42 64° E 20:38:47 10° NNE
ALOS 2.3 20:28:11 10° SSE 20:32:47 63° ENE 20:37:26 10° N
Cosmos 1892 Rocket 3.6 20:29:03 10° N 20:33:32 68° E 20:37:59 10° SSE
Cosmos 1025 Rocket 3.4 20:30:29 10° NNW 20:34:51 72° W 20:39:09 10° S
Cosmos 1455 Rocket 3.2 20:34:29 10° S 20:38:40 52° E 20:42:54 10° NNE
Cosmos 2369 4.0 20:33:38 10° S 20:39:00 46° ESE 20:44:24 10° NE
H-2A R/B 2.9 20:35:17 10° SSE 20:39:04 57° ENE 20:42:55 10° N
Resurs 1-3 4.1 20:34:48 10° S 20:39:09 64° WSW 20:43:31 10° NNW
NOSS 2-1 (E) 3.7 20:36:45 10° SW 20:40:38 72° NW 20:45:07 10° NNE
Cosmos 1461 3.4 20:37:26 10° NNW 20:41:20 41° NE 20:44:43 12° ESE
Meteor 1-23 Rocket 4.3 20:37:11 10° N 20:42:50 84° W 20:48:32 10° S
Cosmos 1980 Rocket 3.9 20:45:16 11° ESE 20:46:09 12° E 20:48:08 10° ENE
Cosmos 1633 4.5 20:48:05 10° SW 20:51:28 35° WNW 20:54:50 10° N
Centaur D-1A AC-32 4.2 20:51:00 10° SSW 20:51:58 11° SSW 20:52:50 10° S
Cosmos 1939 Rocket 4.1 20:51:41 15° ESE 20:54:15 26° ENE 20:57:43 10° NNE
CZ-2D R/B 3.4 20:51:59 10° S 20:55:50 79° WSW 20:59:44 10° NNW
Resurs 01 Rocket 3.5 20:52:22 10° SSW 20:56:19 31° W 21:00:17 10° NNW
Lacrosse 5 3.4 20:52:16 10° NNW 20:56:25 24° NNE 21:00:15 11° E
Cosmos 1934 Rocket 4.0 20:50:27 10° S 20:56:34 87° W 21:02:49 10° N
Hubble Space Telescope 3.1 20:59:23 10° SSW 21:00:54 12° SSW 21:02:25 10° S
SPOT 5 4.3 21:02:06 16° ESE 21:04:28 23° ENE 21:08:13 10° NNE
Cosmos 220 Rocket 4.4 21:03:22 10° N 21:07:25 43° ENE 21:09:49 22° SE
Cosmos 1346 Rocket 3.2 21:06:51 10° NNW 21:10:46 64° W 21:14:41 10° S
Cosmos 2227 Rocket 2.2 21:07:42 10° NNW 21:13:24 89° ENE 21:18:21 14° SSE
USA 186 2.5 21:10:45 10° S 21:13:48 49° W 21:16:42 10° NNW
FENGYUN 3A 4.3 21:09:08 10° S 21:14:22 56° W 21:19:39 10° NNW
Tiangong 1 1.5 21:11:42 10° W 21:14:45 55° N 21:16:25 23° ENE
OTV 4 1.2 21:13:13 10° W 21:16:01 38° SSW 21:16:45 31° SSE
Cosmos 1656 3.7 21:14:48 10° S 21:20:18 57° ESE 21:25:45 10° NNE
Cosmos 1500 3.4 21:18:30 23° SSE 21:20:27 44° E 21:24:04 10° NNE
NOSS 3-4 (A) 4.1 21:14:18 10° NW 21:21:19 67° WSW 21:28:01 13° SSE
RESURS DK-1 3.8 21:18:01 10° N 21:21:21 23° NE 21:22:21 21° ENE
NOSS 3-4 (C) 4.1 21:14:25 10° NW 21:21:26 68° WSW 21:28:06 13° SSE
BREEZE-M TANK 3.5 21:09:53 10° WNW 21:22:36 73° NNE 21:24:54 25° E
Cosmos 2298 Rocket 4.2 21:20:28 10° N 21:25:41 54° ENE 21:28:25 27° SE
Cosmos 2082 3.8 21:21:12 10° NNW 21:26:49 77° WSW 21:31:17 17° SSE
CZ-4 DEB 2.7 21:26:40 30° S 21:28:05 84° WSW 21:31:14 10° NNW
Cosmos 2297 Rocket 2.1 21:23:23 10° NNW 21:29:05 86° ENE 21:32:48 22° SSE
Cosmos 1340 4.0 21:32:08 10° NNE 21:34:56 24° ENE 21:34:56 24° ENE
Envisat 2.9 21:34:13 26° SSE 21:37:07 72° ENE 21:42:11 10° N
Cosmos 2173 Rocket 4.1 21:32:57 15° SSE 21:38:03 55° E 21:44:13 10° NNE
Milstar 3 Cent rocket 4.4 21:18:47 10° WSW 21:39:26 50° S 21:45:56 26° SE
H-2A R/B 3.9 21:39:13 13° ENE 21:39:27 13° ENE 21:41:46 10° NNE
SJ-11-01 4.5 21:38:17 18° S 21:41:44 70° WSW 21:46:26 10° NNW
Cosmos 1937 Rocket 3.8 21:36:54 10° N 21:42:02 49° ENE 21:43:40 37° ESE
Cosmos 1515 3.7 21:39:34 10° N 21:43:25 78° W 21:44:57 35° S
Terra 4.0 21:44:43 11° ENE 21:44:43 11° ENE 21:46:02 10° NE
ASTEX 1 3.8 21:41:09 10° NNE 21:45:53 40° E 21:46:26 39° ESE
OAO 2 Rocket 3.7 21:43:02 10° WSW 21:47:49 43° S 21:48:33 40° SSE
Cosmos 2100 Rocket 3.9 21:42:27 12° S 21:48:23 73° E 21:54:36 10° NNE
YAOGAN 6 3.4 21:49:35 36° NE 21:49:35 36° NE 21:52:35 10° N
Cosmos 2061 Rocket 3.9 21:44:13 17° S 21:49:12 67° E 21:55:25 10° NNE
Cosmos 2150 Rocket 3.8 21:47:24 10° NNW 21:52:35 82° ENE 21:54:22 42° SSE
Iridium 4 Rocket 4.0 21:47:43 10° N 21:52:46 55° W 21:56:49 13° SSW
Cosmos 1743 2.7 21:53:16 62° E 21:53:16 62° E 21:57:02 10° NNE
Cosmos 1825 Rocket 3.6 21:50:37 10° N 21:55:00 58° E 21:55:21 56° ESE
MetOp-A 4.1 21:55:02 43° SE 21:56:36 63° ENE 22:01:54 10° N
Cosmos 972 Rocket 4.4 21:50:44 10° NNW 21:56:39 75° ENE 21:59:20 37° SSE
Cosmos 1975 4.3 21:53:57 10° SW 21:57:46 37° WNW 22:01:36 10° N
SPOT 1/Viking Rocket 4.0 21:57:13 39° E 21:57:54 41° ENE 22:02:47 10° N
Cosmos 990 Rocket 4.2 21:52:47 10° N 21:57:54 50° ENE 21:58:46 45° E
DELTA 2 R/B (1) 3.6 21:53:36 10° W 21:59:06 64° SSW 22:00:24 49° SE
Cosmos 1066 Rocket 4.3 21:54:42 10° NNW 22:00:22 78° W 22:03:26 29° S
Cosmos 1953 Rocket 3.8 21:59:34 10° N 22:03:44 52° ENE 22:03:44 52° ENE
H-2A R/B 2.0 22:06:31 62° SSW 22:07:04 74° WSW 22:11:12 10° NNW
Cosmos 1697 Rocket 2.7 22:01:31 10° SSW 22:07:11 81° WNW 22:12:52 10° NNE
Lacrosse 5 rocket 2.1 22:06:12 10° WNW 22:09:24 38° WSW 22:09:24 38° WSW
ERS-1 Rocket 4.1 22:07:45 18° SSW 22:11:01 40° W 22:15:46 10° NNW
SL-16 R/B 4.2 22:15:31 14° ENE 22:15:31 14° ENE 22:16:25 10° NE
NOAA 11 4.3 22:15:11 54° E 22:15:43 57° ENE 22:21:05 10° N
deb Chang Zheng 4 4.1 22:11:50 10° N 22:16:14 61° WNW 22:18:17 30° SW
Cosmos 1898 Rocket 4.0 22:12:19 10° NNW 22:17:31 56° WSW 22:19:07 40° SSW
Cosmos 1758 Rocket 3.8 22:18:41 10° N 22:22:20 58° NNE 22:22:20 58° NNE
Cosmos 1725 Rocket 3.9 22:22:45 58° ESE 22:23:19 60° E 22:29:26 10° NNE
Cosmos 1125 Rocket 4.4 22:18:54 10° N 22:23:14 34° NE 22:23:14 34° NE
Cosmos 1763 Rocket 3.3 22:24:17 75° ENE 22:24:17 75° ENE 22:29:09 10° NNE
Cosmos 1459 Rocket 4.3 22:21:24 16° SSW 22:26:15 61° W 22:32:18 10° N
Cosmos 1980 Rocket 2.1 22:26:52 36° SSW 22:29:16 87° WNW 22:35:00 10° NNE
Meteor 1-15 Rocket 4.4 22:30:17 60° E 22:30:17 60° E 22:35:50 10° NNE
ARGOS 3.0 22:30:52 76° E 22:31:01 77° ENE 22:36:26 10° N
Lacrosse 5 2.0 22:34:48 10° NW 22:39:26 71° W 22:39:26 71° W
SPOT 5 3.8 22:41:21 39° SW 22:42:16 43° W 22:46:57 10° NNW
Cosmos 2058 Rocket 3.9 22:44:37 49° N 22:44:37 49° N 22:47:59 10° N
Cosmos 841 Rocket 3.5 22:45:04 76° NNW 22:45:04 76° NNW 22:50:00 10° NNE
USA 215 3.4 22:44:53 54° E 22:46:05 62° NE 22:52:31 10° NW
BREEZE-M DEB (TANK) 4.1 22:35:15 10° SW 22:48:46 74° SSE 22:49:08 72° ESE
Cosmos 2233 Rocket 4.2 22:51:57 55° NE 22:51:57 55° NE 22:57:09 10° NNE
Tiangong 1 4.5 22:48:19 10° WNW 22:48:23 11° WNW 22:48:23 11° WNW
Cosmos 2263 Rocket 3.3 22:54:07 10° N 22:58:15 32° NE 22:58:15 32° NE
RESURS DK-1 4.3 22:55:46 10° NW 22:58:17 26° WNW 22:58:17 26° WNW
Cosmos 2322 Rocket 3.4 23:03:22 31° NE 23:03:22 31° NE 23:06:16 10° NNE
H-2A R/B 3.0 23:19:52 43° NNW 23:19:52 43° NNW 23:23:13 10° NNW
BREEZE-M DEB (TANK) 3.7 23:03:13 10° WNW 23:18:39 73° NNE 23:18:46 73° NNE
Terra 3.2 23:23:37 35° NNW 23:23:37 35° NNW 23:26:24 10° NNW
